Location: Dompnac
(44.5644°N, 4.1026°E)
Time: 02:33:50
(UTC+00:00)

USA 234 - Pass Details

Date: 23 January 2021
Orbit: 1100 x 1107 km, 123.0° (Epoch: 01 March)

Event Time Altitude Azimuth Distance (km) Brightness Sun altitude
Exits shadow 20:01:22 42° 341° (NNW) 1,523 4.0 -35.6°
Drops below altitude 10° 20:05:53 10° 314° (NW) 2,966 6.1 -36.4°
Sets 20:08:25 0° 310° (NW) 3,927 6.9 -36.8°
